Evansville, IN

3:48 PM CST on February 19, 2017 (GMT -0600)
Evansville Regional

Weather History for KEVV - May, 2013

Change the Weather History Date:

Sunday, May 26, 2013

  Actual Average Record
Temperature  
Mean Temperature 68 °F 69 °F  
Max Temperature 78 °F 80 °F 96 °F (1911)
Min Temperature 57 °F 58 °F 38 °F (1979)
Degree Days  
Heating Degree Days 0 1  
Month to date heating degree days 82 81  
Since 1 July heating degree days 4530 4536  
Cooling Degree Days 3 5  
Month to date cooling degree days 82 79  
Year to date cooling degree days 116 106  
Growing Degree Days 18 (Base 50)    
Moisture  
Dew Point 50 °F    
Average Humidity 55    
Maximum Humidity 67    
Minimum Humidity 43    
Precipitation  
Precipitation T in 0.18 in 3.28 in (1981)
Month to date precipitation 4.10 4.50  
Year to date precipitation 21.57 19.38  
Snow  
Snow 0.00 in 0.00 in - ()
Month to date snowfall 0.0 0.0  
Since 1 July snowfall 12.3 11.8  
Snow Depth 0.00 in    
Sea Level Pressure  
Sea Level Pressure 30.20 in    
Wind  
Wind Speed 6 mph (ESE)    
Max Wind Speed 14 mph    
Max Gust Speed 18 mph    
Visibility 10 miles    
Events Rain    
T = Trace of Precipitation, MM = Missing Value Source: NWS Daily Summary

Daily Weather History Graph

Daily Weather History Graph

Search for Another Location

Airport or City:

Trip Planner

Search our weather history database for the weather conditions in past years. The results will help you decide how hot, cold, wet, or windy it might be!

Date:

Astronomy

May. 26, 2013 Rise Set
Actual Time 5:31 AM CDT 8:03 PM CDT
Civil Twilight 5:01 AM CDT 8:33 PM CDT
Nautical Twilight 4:23 AM CDT 9:11 PM CDT
Astronomical Twilight 3:41 AM CDT 9:53 PM CDT
Moon 9:50 PM CDT (5/26) 7:00 AM CDT (5/26)
Length of Visible Light 15h 32m
Length of Day
14h 31m
Waning Gibbous, 96% of the Moon is Illuminated
May 26
Waning Gibbous
May 31
Last Quarter
Jun 8
New
Jun 16
First Quarter
Jun 23
Full

Hourly Weather History & Observations

Time (CDT) Temp. Dew Point Humidity Pressure Visibility Wind Dir Wind Speed Gust Speed Precip Events Conditions
12:54 AM 57.9 °F 48.9 °F 72% 30.24 in 8.0 mi ENE 8.1 mph - 0.01 in Rain Rain
1:54 AM 57.9 °F 48.9 °F 72% 30.25 in 10.0 mi ENE 8.1 mph - 0.00 in   Overcast
2:54 AM 57.9 °F 46.9 °F 67% 30.23 in 10.0 mi East 6.9 mph - N/A   Overcast
3:54 AM 59.0 °F 45.0 °F 60% 30.22 in 10.0 mi East 6.9 mph - N/A   Overcast
4:54 AM 59.0 °F 46.0 °F 62% 30.23 in 10.0 mi East 6.9 mph - 0.00 in   Overcast
5:54 AM 59.0 °F 48.0 °F 67% 30.23 in 10.0 mi East 6.9 mph - N/A   Overcast
6:54 AM 60.1 °F 48.0 °F 64% 30.24 in 10.0 mi ESE 5.8 mph - N/A   Overcast
7:54 AM 60.1 °F 48.0 °F 64% 30.25 in 10.0 mi East 4.6 mph - N/A   Overcast
8:54 AM 61.0 °F 48.0 °F 62% 30.26 in 10.0 mi East 4.6 mph - N/A   Overcast
9:54 AM 63.0 °F 48.0 °F 58% 30.26 in 10.0 mi ESE 5.8 mph - N/A   Overcast
10:54 AM 64.0 °F 46.9 °F 54% 30.28 in 10.0 mi East 4.6 mph - N/A   Overcast
11:54 AM 66.9 °F 50.0 °F 54% 30.25 in 10.0 mi ESE 6.9 mph - N/A   Overcast
12:54 PM 71.1 °F 51.1 °F 49% 30.23 in 10.0 mi SSE 11.5 mph - N/A   Partly Cloudy
1:54 PM 73.0 °F 52.0 °F 48% 30.22 in 10.0 mi SSE 6.9 mph - N/A   Scattered Clouds
2:54 PM 75.0 °F 53.1 °F 46% 30.19 in 10.0 mi Variable 3.5 mph - N/A   Mostly Cloudy
3:54 PM 77.0 °F 53.1 °F 43% 30.17 in 10.0 mi Variable 6.9 mph - N/A   Mostly Cloudy
4:54 PM 77.0 °F 53.1 °F 43% 30.14 in 10.0 mi ESE 8.1 mph - N/A   Clear
5:54 PM 77.0 °F 53.1 °F 43% 30.13 in 10.0 mi East 8.1 mph - N/A   Clear
6:54 PM 75.0 °F 53.1 °F 46% 30.12 in 10.0 mi ESE 6.9 mph - N/A   Clear
7:54 PM 72.0 °F 53.1 °F 51% 30.12 in 10.0 mi East 4.6 mph - N/A   Clear
8:54 PM 71.1 °F 53.1 °F 53% 30.11 in 10.0 mi ESE 4.6 mph - N/A   Clear
9:54 PM 70.0 °F 53.1 °F 55% 30.12 in 10.0 mi East 5.8 mph - N/A   Clear
10:54 PM 69.1 °F 53.1 °F 57% 30.12 in 10.0 mi SE 5.8 mph - N/A   Clear
11:54 PM 69.1 °F 52.0 °F 54% 30.11 in 10.0 mi SE 6.9 mph - N/A   Clear